Date String (YYYY-MM-DD hh:mm:ss) UTC,Instrument flags,Ambient pressure (hPa),Sample flow (lpm),Bypass flow (lpm),Sample temperature (°C),Ambient temperature (°C),ASC tube jacket temperature (°C),LED temperature (°C),Box temperature (°C),Sample RH (%),Span deviation,Mass concentration (μg/m³),Mass concentration (μg/m³),Mass concentration (μg/m³)
DateTimeUTC,F1_M11,P_M11,Q1_M11,Q2_M11,T1_M11,T2_M11,T3_M11,T4_M11,T5_M11,U1_M11,ZSPAN_M11,X0_M11,X2_M11,X1_M11
2022-06-23 02:00:00,,0828.2,4.99,0.00,29.2,28.1,00.0,37.9,31.2,17.2,0000.0,0019.89,0005.22,0003.60
2022-06-23 02:01:00,,0828.2,5.01,0.00,29.2,28.3,00.0,37.9,31.2,17.1,0000.0,0019.28,0005.18,0003.59
2022-06-23 02:02:00,,0828.3,5.00,0.00,29.2,28.4,00.0,37.9,31.3,17.0,0000.0,0018.51,0005.15,0003.59
2022-06-23 02:03:00,,0828.3,5.00,0.00,29.3,28.5,00.0,38.0,31.3,16.9,0000.0,0018.17,0005.14,0003.58
2022-06-23 02:04:00,,0828.3,5.00,0.00,29.3,27.9,00.0,37.9,31.2,16.9,0000.0,0017.54,0005.15,0003.55
2022-06-23 02:05:00,,0828.4,4.99,0.00,29.2,27.0,00.0,37.9,30.9,17.1,0000.0,0017.41,0005.15,0003.53
2022-06-23 02:06:00,,0828.2,5.00,0.00,29.1,26.8,00.0,37.8,30.8,17.0,0000.0,0017.92,0005.16,0003.53
2022-06-23 02:07:00,,0828.2,5.01,0.00,29.1,26.8,00.0,37.8,30.8,17.0,0000.0,0018.10,0005.16,0003.51
2022-06-23 02:08:00,,0828.3,5.01,0.00,29.0,27.0,00.0,37.8,30.8,17.2,0000.0,0017.84,0005.22,0003.49
2022-06-23 02:09:00,,0828.2,5.00,0.00,29.0,27.2,00.0,37.8,30.9,17.4,0000.0,0018.89,0005.33,0003.49
2022-06-23 02:10:00,,0828.2,5.00,0.00,29.0,27.4,00.0,37.8,30.9,17.5,0000.0,0019.69,0005.36,0003.49
2022-06-23 02:11:00,,0828.2,5.01,0.00,29.0,27.6,00.0,37.8,31.0,17.8,0000.0,0019.94,0005.32,0003.49
2022-06-23 02:12:00,,0828.2,4.99,0.00,29.1,27.7,00.0,37.8,31.0,18.1,0000.0,0020.53,0005.40,0003.50
2022-06-23 02:13:00,,0828.2,5.01,0.00,29.1,27.9,00.0,37.8,31.1,18.1,0000.0,0021.45,0005.39,0003.49
2022-06-23 02:14:00,,0828.2,5.00,0.00,29.1,28.1,00.0,37.9,31.1,18.0,0000.0,0021.45,0005.36,0003.49
2022-06-23 02:15:00,,0828.2,4.99,0.00,29.2,28.2,00.0,37.9,31.2,18.0,0000.0,0022.07,0005.35,0003.51
2022-06-23 02:16:00,,0828.2,5.01,0.00,29.2,28.3,00.0,37.9,31.2,17.8,0000.0,0022.09,0005.30,0003.51
2022-06-23 02:17:00,,0828.2,5.00,0.00,29.3,28.4,00.0,37.9,31.3,17.7,0000.0,0022.12,0005.30,0003.51
2022-06-23 02:18:00,,0828.2,4.99,0.00,29.3,28.5,00.0,38.0,31.3,17.5,0000.0,0022.37,0005.35,0003.51
2022-06-23 02:19:00,,0828.2,5.00,0.00,29.3,27.8,00.0,37.9,31.2,17.4,0000.0,0021.56,0005.33,0003.52
2022-06-23 02:20:00,,0828.1,5.00,0.00,29.2,27.0,00.0,37.9,30.9,17.5,0000.0,0020.59,0005.21,0003.53
2022-06-23 02:21:00,,0828.2,5.00,0.00,29.1,26.8,00.0,37.8,30.8,17.3,0000.0,0020.26,0005.25,0003.53
2022-06-23 02:22:00,,0828.1,5.00,0.00,29.1,26.8,00.0,37.8,30.8,17.3,0000.0,0021.21,0005.31,0003.53
2022-06-23 02:23:00,,0828.1,5.00,0.00,29.0,27.0,00.0,37.8,30.8,17.8,0000.0,0021.34,0005.27,0003.51
2022-06-23 02:24:00,,0828.1,5.01,0.00,29.0,27.1,00.0,37.8,30.8,18.6,0000.0,0021.40,0005.34,0003.53
2022-06-23 02:25:00,,0828.1,5.01,0.00,29.0,27.3,00.0,37.8,30.9,18.7,0000.0,0021.68,0005.35,0003.54
2022-06-23 02:26:00,,0828.1,5.00,0.00,29.0,27.5,00.0,37.8,30.9,18.3,0000.0,0022.26,0005.36,0003.53
2022-06-23 02:27:00,,0828.1,5.00,0.00,29.0,27.7,00.0,37.8,31.0,18.1,0000.0,0022.95,0005.44,0003.52
2022-06-23 02:28:00,,0828.2,4.99,0.00,29.1,27.9,00.0,37.8,31.1,18.4,0000.0,0023.81,0005.50,0003.53
2022-06-23 02:29:00,,0828.1,5.01,0.00,29.1,28.0,00.0,37.9,31.1,18.3,0000.0,0023.77,0005.53,0003.53
2022-06-23 02:30:00,,0828.2,5.00,0.00,29.1,28.2,00.0,37.9,31.2,18.1,0000.0,0024.32,0005.57,0003.52
2022-06-23 02:31:00,,0828.1,5.01,0.00,29.2,28.3,00.0,37.9,31.2,17.9,0000.0,0023.94,0005.64,0003.52
2022-06-23 02:32:00,,0828.1,5.00,0.00,29.2,28.4,00.0,37.9,31.3,17.9,0000.0,0023.33,0005.64,0003.52
2022-06-23 02:33:00,,0828.2,5.00,0.00,29.3,28.5,00.0,38.0,31.3,17.9,0000.0,0022.39,0005.65,0003.52
2022-06-23 02:34:00,,0828.2,5.00,0.00,29.3,28.5,00.0,38.0,31.3,17.9,0000.0,0022.09,0005.67,0003.53
2022-06-23 02:35:00,,0828.1,5.01,0.00,29.3,27.8,00.0,37.9,31.1,17.8,0000.0,0022.21,0005.65,0003.55
2022-06-23 02:36:00,,0828.2,5.00,0.00,29.2,27.0,00.0,37.9,30.9,17.8,0000.0,0024.37,0005.66,0003.56
2022-06-23 02:37:00,,0828.1,4.99,0.00,29.1,26.8,00.0,37.8,30.8,17.8,0000.0,0023.99,0005.69,0003.58
2022-06-23 02:38:00,,0828.1,5.00,0.00,29.0,26.8,00.0,37.8,30.8,17.9,0000.0,0025.58,0005.72,0003.61
2022-06-23 02:39:00,,0828.1,5.00,0.00,29.0,26.9,00.0,37.8,30.8,17.8,0000.0,0025.17,0005.72,0003.63
2022-06-23 02:40:00,,0828.2,4.99,0.00,29.0,27.1,00.0,37.8,30.8,17.7,0000.0,0024.39,0005.71,0003.65
2022-06-23 02:41:00,,0828.2,5.01,0.00,29.0,27.3,00.0,37.8,30.9,17.7,0000.0,0025.37,0005.70,0003.68
2022-06-23 02:42:00,,0828.2,5.01,0.00,29.0,27.5,00.0,37.8,30.9,17.6,0000.0,0026.94,0005.67,0003.68
2022-06-23 02:43:00,,0828.3,4.99,0.00,29.0,27.6,00.0,37.8,31.0,17.6,0000.0,0027.79,0005.71,0003.69
2022-06-23 02:44:00,,0828.2,5.00,0.00,29.1,27.8,00.0,37.8,31.0,17.5,0000.0,0027.91,0005.67,0003.71
2022-06-23 02:45:00,,0828.1,4.99,0.00,29.1,28.0,00.0,37.9,31.1,17.4,0000.0,0027.96,0005.64,0003.71
2022-06-23 02:46:00,,0828.2,5.00,0.00,29.1,28.1,00.0,37.9,31.1,17.3,0000.0,0026.98,0005.64,0003.72
2022-06-23 02:47:00,,0828.1,5.00,0.00,29.2,28.2,00.0,37.9,31.2,17.3,0000.0,0024.59,0005.60,0003.72
2022-06-23 02:48:00,,0828.1,5.01,0.00,29.2,28.3,00.0,37.9,31.2,17.3,0000.0,0024.32,0005.60,0003.72
2022-06-23 02:49:00,,0828.2,4.99,0.00,29.2,28.4,00.0,37.9,31.3,17.2,0000.0,0022.76,0005.60,0003.71
2022-06-23 02:50:00,,0828.1,4.99,0.00,29.3,28.5,00.0,38.0,31.3,17.2,0000.0,0022.36,0005.56,0003.71
2022-06-23 02:51:00,,0828.2,5.01,0.00,29.3,28.5,00.0,38.0,31.3,17.3,0000.0,0022.97,0005.55,0003.71
2022-06-23 02:52:00,,0828.1,5.00,0.00,29.3,27.9,00.0,38.0,31.2,17.6,0000.0,0022.05,0005.58,0003.72
2022-06-23 02:53:00,,0828.1,5.00,0.00,29.2,27.4,00.0,37.9,31.1,17.7,0000.0,0021.16,0005.61,0003.73
2022-06-23 02:54:00,,0828.1,4.99,0.00,29.2,27.3,00.0,37.9,31.0,17.7,0000.0,0021.18,0005.59,0003.75
2022-06-23 02:55:00,,0828.1,5.00,0.00,29.2,27.3,00.0,37.9,31.0,17.6,0000.0,0022.17,0005.61,0003.76
2022-06-23 02:56:00,,0828.1,5.01,0.00,29.1,27.4,00.0,37.9,31.0,17.6,0000.0,0022.55,0005.66,0003.76
2022-06-23 02:57:00,,0828.1,5.00,0.00,29.1,27.6,00.0,37.9,31.0,17.5,0000.0,0022.56,0005.66,0003.76
2022-06-23 02:58:00,,0828.1,5.00,0.00,29.2,27.7,00.0,37.9,31.1,17.6,0000.0,0023.99,0005.70,0003.76
2022-06-23 02:59:00,,0828.2,5.00,0.00,29.2,27.9,00.0,38.0,31.1,17.6,0000.0,0024.24,0005.73,0003.78
